Date String (YYYY-MM-DD hh:mm:ss) UTC,Instrument flags,absolute air pressure of the measurement (hPa),sample flow rate (lpm),inlet stack bypass flow (lpm),air temperature of the measurement (°C),ambient temperature measured by the external sensor (°C),aerosol sample conditioner tube jacket temperature (°C),OPC LED temperature (°C),internal box temperature (°C),relative humidity of the measurement (%),span deviation,mass concentration of particles derived from Lorenz-Mie calculation of OPC scattering (μg/m³),mass concentration of particles derived from Lorenz-Mie calculation of OPC scattering (μg/m³),mass concentration of particles derived from Lorenz-Mie calculation of OPC scattering (μg/m³)
DateTimeUTC,F1_M11,P_M11,Q1_M11,Q2_M11,T1_M11,T2_M11,T3_M11,T4_M11,T5_M11,U1_M11,ZSPAN_M11,X2_M11,X0_M11,X1_M11
2024-03-25 15:00:00,SystemResetWarning,0818.0,5.00,000.00,018.3,017.3,000.0,027.2,020.0,14.2,0000.0,0005.37,0009.01,0005.25
2024-03-25 15:01:00,SystemResetWarning,0818.0,5.01,000.00,018.3,017.3,000.0,027.2,020.0,14.2,0000.0,0005.34,0008.95,0005.23
2024-03-25 15:02:00,SystemResetWarning,0818.1,5.01,000.00,018.4,018.0,000.0,027.3,020.4,14.1,0000.0,0005.32,0009.19,0005.22
2024-03-25 15:03:00,SystemResetWarning,0818.1,5.00,000.00,018.7,019.0,000.0,027.4,021.0,13.9,0000.0,0005.32,0008.66,0005.21
2024-03-25 15:04:00,SystemResetWarning,0818.1,4.98,000.00,018.8,019.2,000.0,027.3,021.1,13.7,0000.0,0005.31,0008.46,0005.21
2024-03-25 15:05:00,SystemResetWarning,0818.0,5.01,000.00,018.8,018.9,000.0,027.3,020.9,13.5,0000.0,0005.28,0008.41,0005.19
2024-03-25 15:06:00,SystemResetWarning,0818.0,5.01,000.00,018.8,018.7,000.0,027.3,020.7,13.4,0000.0,0005.28,0008.30,0005.19
2024-03-25 15:07:00,SystemResetWarning,0818.0,5.00,000.00,018.7,018.4,000.0,027.3,020.5,13.4,0000.0,0005.28,0008.29,0005.17
2024-03-25 15:08:00,SystemResetWarning,0818.0,5.00,000.00,018.7,018.2,000.0,027.3,020.4,13.4,0000.0,0005.26,0008.28,0005.15
2024-03-25 15:09:00,SystemResetWarning,0818.0,4.99,000.00,018.6,018.0,000.0,027.3,020.3,13.5,0000.0,0005.25,0008.30,0005.14
2024-03-25 15:10:00,SystemResetWarning,0818.0,4.99,000.00,018.6,017.9,000.0,027.3,020.2,13.4,0000.0,0005.24,0008.08,0005.13
2024-03-25 15:11:00,SystemResetWarning,0818.0,5.01,000.00,018.5,017.7,000.0,027.2,020.1,13.4,0000.0,0005.25,0007.71,0005.12
2024-03-25 15:12:00,SystemResetWarning,0818.0,5.01,000.00,018.5,017.6,000.0,027.2,020.1,13.3,0000.0,0005.26,0007.79,0005.12
2024-03-25 15:13:00,SystemResetWarning,0818.1,5.01,000.00,018.4,017.5,000.0,027.2,020.0,13.3,0000.0,0005.27,0007.50,0005.12
2024-03-25 15:14:00,SystemResetWarning,0818.0,5.00,000.00,018.4,017.4,000.0,027.2,020.0,13.3,0000.0,0005.27,0007.79,0005.10
2024-03-25 15:15:00,SystemResetWarning,0818.0,5.00,000.00,018.3,017.3,000.0,027.2,020.0,13.3,0000.0,0005.26,0008.22,0005.09
2024-03-25 15:16:00,SystemResetWarning,0818.1,5.00,000.00,018.3,017.2,000.0,027.2,020.0,13.3,0000.0,0005.28,0008.28,0005.09
2024-03-25 15:17:00,SystemResetWarning,0818.1,5.01,000.00,018.4,018.0,000.0,027.3,020.5,13.3,0000.0,0005.29,0008.35,0005.10
2024-03-25 15:18:00,SystemResetWarning,0818.2,5.00,000.00,018.7,019.0,000.0,027.4,021.1,13.0,0000.0,0005.29,0008.36,0005.10
2024-03-25 15:19:00,SystemResetWarning,0818.2,5.00,000.00,018.8,019.2,000.0,027.3,021.1,12.9,0000.0,0005.31,0008.40,0005.09
2024-03-25 15:20:00,SystemResetWarning,0818.2,4.99,000.00,018.8,018.8,000.0,027.3,020.9,12.9,0000.0,0005.32,0008.40,0005.10
2024-03-25 15:21:00,SystemResetWarning,0818.2,4.99,000.00,018.8,018.5,000.0,027.3,020.6,12.9,0000.0,0005.32,0008.40,0005.09
2024-03-25 15:22:00,SystemResetWarning,0818.1,5.02,000.00,018.7,018.2,000.0,027.3,020.5,13.0,0000.0,0005.31,0008.38,0005.09
2024-03-25 15:23:00,SystemResetWarning,0818.2,5.00,000.00,018.7,018.1,000.0,027.3,020.4,13.1,0000.0,0005.30,0008.34,0005.09
2024-03-25 15:24:00,SystemResetWarning,0818.2,4.99,000.00,018.6,017.9,000.0,027.3,020.3,13.1,0000.0,0005.32,0008.38,0005.09
2024-03-25 15:25:00,SystemResetWarning,0818.3,5.01,000.00,018.6,017.8,000.0,027.2,020.2,13.2,0000.0,0005.31,0008.13,0005.10
2024-03-25 15:26:00,SystemResetWarning,0818.3,5.01,000.00,018.5,017.6,000.0,027.2,020.1,13.3,0000.0,0005.31,0008.33,0005.11
2024-03-25 15:27:00,SystemResetWarning,0818.3,5.00,000.00,018.4,017.6,000.0,027.2,020.1,13.4,0000.0,0005.30,0008.31,0005.12
2024-03-25 15:28:00,SystemResetWarning,0818.2,4.99,000.00,018.4,017.5,000.0,027.2,020.0,13.4,0000.0,0005.31,0008.34,0005.13
2024-03-25 15:29:00,SystemResetWarning,0818.3,4.99,000.00,018.4,017.4,000.0,027.2,020.0,13.4,0000.0,0005.33,0008.62,0005.15
2024-03-25 15:30:00,SystemResetWarning,0818.3,5.02,000.00,018.3,017.3,000.0,027.2,020.0,13.5,0000.0,0005.36,0008.70,0005.18
2024-03-25 15:31:00,SystemResetWarning,0818.3,5.00,000.00,018.3,017.3,000.0,027.2,020.0,13.5,0000.0,0005.36,0008.75,0005.19
2024-03-25 15:32:00,SystemResetWarning,0818.3,4.99,000.00,018.3,017.3,000.0,027.2,020.1,13.6,0000.0,0005.36,0008.75,0005.19
2024-03-25 15:33:00,SystemResetWarning,0818.3,5.01,000.00,018.4,018.1,000.0,027.3,020.5,13.5,0000.0,0005.37,0008.76,0005.19
2024-03-25 15:34:00,SystemResetWarning,0818.3,5.00,000.00,018.7,019.1,000.0,027.3,021.1,13.3,0000.0,0005.37,0008.79,0005.19
2024-03-25 15:35:00,SystemResetWarning,0818.3,4.97,000.00,018.9,019.2,000.0,027.3,021.2,13.1,0000.0,0005.35,0008.98,0005.18
2024-03-25 15:36:00,SystemResetWarning,0818.3,5.01,000.00,018.9,018.9,000.0,027.3,020.9,12.9,0000.0,0005.38,0009.14,0005.18
2024-03-25 15:37:00,SystemResetWarning,0818.3,5.01,000.00,018.8,018.6,000.0,027.3,020.7,12.8,0000.0,0005.42,0008.85,0005.17
2024-03-25 15:38:00,SystemResetWarning,0818.3,5.01,000.00,018.8,018.3,000.0,027.3,020.5,12.7,0000.0,0005.44,0008.79,0005.17
2024-03-25 15:39:00,SystemResetWarning,0818.3,5.00,000.00,018.7,018.1,000.0,027.3,020.4,12.8,0000.0,0005.43,0008.92,0005.15
2024-03-25 15:40:00,SystemResetWarning,0818.3,4.99,000.00,018.7,017.9,000.0,027.2,020.3,12.8,0000.0,0005.42,0008.97,0005.13
2024-03-25 15:41:00,SystemResetWarning,0818.3,5.00,000.00,018.6,017.8,000.0,027.2,020.2,12.9,0000.0,0005.39,0009.12,0005.11
2024-03-25 15:42:00,SystemResetWarning,0818.3,5.01,000.00,018.5,017.6,000.0,027.2,020.1,13.0,0000.0,0005.39,0009.36,0005.10
2024-03-25 15:43:00,SystemResetWarning,0818.3,5.00,000.00,018.5,017.6,000.0,027.2,020.1,13.1,0000.0,0005.42,0009.43,0005.12
2024-03-25 15:44:00,SystemResetWarning,0818.3,5.00,000.00,018.4,017.5,000.0,027.2,020.0,13.1,0000.0,0005.44,0009.44,0005.14
2024-03-25 15:45:00,SystemResetWarning,0818.3,5.00,000.00,018.4,017.4,000.0,027.2,020.0,13.1,0000.0,0005.46,0009.56,0005.15
2024-03-25 15:46:00,SystemResetWarning,0818.3,5.01,000.00,018.3,017.3,000.0,027.2,020.0,13.1,0000.0,0005.49,0009.61,0005.16
2024-03-25 15:47:00,SystemResetWarning,0818.3,4.99,000.00,018.3,017.3,000.0,027.2,020.0,13.1,0000.0,0005.49,0010.94,0005.15
2024-03-25 15:48:00,SystemResetWarning,0818.3,5.01,000.00,018.3,017.2,000.0,027.2,020.0,13.0,0000.0,0005.47,0011.86,0005.15
2024-03-25 15:49:00,SystemResetWarning,0818.3,5.00,000.00,018.3,017.2,000.0,027.2,020.0,13.0,0000.0,0005.46,0011.86,0005.14
2024-03-25 15:50:00,SystemResetWarning,0818.3,5.00,000.00,018.3,017.4,000.0,027.2,020.2,13.0,0000.0,0005.46,0011.74,0005.14
2024-03-25 15:51:00,SystemResetWarning,0818.3,5.02,000.00,018.5,018.4,000.0,027.3,020.8,12.8,0000.0,0005.46,0011.42,0005.15
2024-03-25 15:52:00,SystemResetWarning,0818.3,4.99,000.00,018.8,019.2,000.0,027.3,021.2,12.6,0000.0,0005.45,0011.76,0005.15
2024-03-25 15:53:00,SystemResetWarning,0818.3,4.99,000.00,018.8,019.1,000.0,027.3,021.0,12.5,0000.0,0005.45,0011.72,0005.16
2024-03-25 15:54:00,SystemResetWarning,0818.3,5.00,000.00,018.8,018.8,000.0,027.3,020.8,12.5,0000.0,0005.43,0011.67,0005.15
2024-03-25 15:55:00,SystemResetWarning,0818.3,5.00,000.00,018.8,018.6,000.0,027.2,020.6,12.5,0000.0,0005.42,0011.66,0005.14
2024-03-25 15:56:00,SystemResetWarning,0818.3,5.00,000.00,018.7,018.3,000.0,027.2,020.5,12.6,0000.0,0005.39,0011.51,0005.14
2024-03-25 15:57:00,SystemResetWarning,0818.3,5.00,000.00,018.7,018.1,000.0,027.2,020.3,12.5,0000.0,0005.38,0011.31,0005.15
2024-03-25 15:58:00,SystemResetWarning,0818.3,5.01,000.00,018.6,017.9,000.0,027.2,020.2,12.7,0000.0,0005.37,0010.26,0005.16
2024-03-25 15:59:00,SystemResetWarning,0818.3,5.01,000.00,018.5,017.7,000.0,027.2,020.1,12.6,0000.0,0005.35,0009.04,0005.18
